Weather History for KDMO - July, 2013

Change the Weather History Date:

Monday, July 29, 2013

  Actual Average Record
Temperature  
Mean Temperature 70 °F 80 °F  
Max Temperature 76 °F 90 °F 105 °F (2012)
Min Temperature 64 °F 69 °F 55 °F (1992)
Degree Days  
Heating Degree Days 0 0  
Month to date heating degree days 0 0  
Since 1 June heating degree days 9 6  
Since 1 July heating degree days 0 0  
Cooling Degree Days 5 14  
Month to date cooling degree days 356 403  
Year to date cooling degree days 811 846  
Since 1 June cooling degree days 663 707  
Growing Degree Days 20 (Base 50)    
Moisture  
Dew Point 64 °F    
Average Humidity 80    
Maximum Humidity 90    
Minimum Humidity 69    
Precipitation  
Precipitation 0.35 in 0.10 in 5.00 in (1998)
Month to date precipitation 1.60 3.99  
Year to date precipitation 27.01 24.23  
Sea Level Pressure  
Sea Level Pressure 30.08 in    
Wind  
Wind Speed 7 mph (SE)    
Max Wind Speed 16 mph    
Max Gust Speed 21 mph    
Visibility 8 miles    
Events Rain    
T = Trace of Precipitation, MM = Missing Value Source: NWS Daily Summary

Daily Weather History Graph

Daily Weather History Graph

Search for Another Location

Airport or City:

Trip Planner

Search our weather history database for the weather conditions in past years. The results will help you decide how hot, cold, wet, or windy it might be!

Date:

Astronomy

Jul. 29, 2013 Rise Set
Actual Time 6:11 AM CDT 8:26 PM CDT
Civil Twilight 5:41 AM CDT 8:55 PM CDT
Nautical Twilight 5:05 AM CDT 9:32 PM CDT
Astronomical Twilight 4:25 AM CDT 10:12 PM CDT
Moon No Moon Rise 1:48 PM CDT (7/29)
Length of Visible Light 15h 13m
Length of Day
14h 14m
Waning Gibbous, 50% of the Moon is Illuminated
Jul 29
Waning Gibbous
Jul 29
Last Quarter
Aug 6
New
Aug 14
First Quarter
Aug 20
Full

Hourly Weather History & Observations

Time (CDT) Temp. Dew Point Humidity Pressure Visibility Wind Dir Wind Speed Gust Speed Precip Events Conditions
12:53 AM 64.0 °F 57.9 °F 80% 30.08 in 10.0 mi Calm Calm - N/A   Mostly Cloudy
1:53 AM 64.9 °F 57.0 °F 75% 30.06 in 10.0 mi SSW 3.5 mph - N/A   Clear
2:53 AM 64.0 °F 59.0 °F 84% 30.07 in 10.0 mi South 3.5 mph - N/A   Overcast
3:53 AM 64.9 °F 59.0 °F 81% 30.06 in 10.0 mi Calm Calm - N/A   Overcast
4:53 AM 64.9 °F 60.1 °F 84% 30.06 in 10.0 mi Calm Calm - N/A   Overcast
5:53 AM 66.0 °F 59.0 °F 78% 30.09 in 10.0 mi Calm Calm - N/A   Overcast
6:53 AM 66.0 °F 60.1 °F 81% 30.10 in 10.0 mi South 4.6 mph - N/A   Overcast
7:53 AM 66.0 °F 60.1 °F 81% 30.11 in 10.0 mi South 5.8 mph - 0.00 in   Overcast
8:36 AM 64.4 °F 62.6 °F 94% 30.15 in 1.8 mi Calm Calm - 0.05 in Rain Rain
8:53 AM 64.9 °F 63.0 °F 93% 30.12 in 2.5 mi SE 5.8 mph - 0.15 in Rain Rain
9:00 AM 64.4 °F 62.6 °F 94% 30.14 in 5.0 mi SE 4.6 mph - 0.01 in Rain Light Rain
9:53 AM 66.0 °F 63.0 °F 90% 30.12 in 10.0 mi East 4.6 mph - 0.03 in Rain Light Rain
10:53 AM 69.1 °F 64.9 °F 87% 30.12 in 10.0 mi ESE 8.1 mph - 0.01 in   Mostly Cloudy
11:53 AM 73.0 °F 64.9 °F 76% 30.11 in 10.0 mi SE 10.4 mph - N/A   Clear
12:53 PM 72.0 °F 64.0 °F 76% 30.10 in 10.0 mi ESE 11.5 mph - N/A   Overcast
1:53 PM 73.0 °F 64.9 °F 76% 30.08 in 10.0 mi East 8.1 mph - 0.01 in   Overcast
2:53 PM 73.9 °F 64.9 °F 73% 30.08 in 10.0 mi ESE 8.1 mph - N/A   Overcast
3:53 PM 75.0 °F 64.9 °F 71% 30.06 in 10.0 mi East 10.4 mph - N/A   Scattered Clouds
4:53 PM 75.0 °F 66.0 °F 73% 30.06 in 10.0 mi ESE 10.4 mph - N/A   Overcast
5:53 PM 73.9 °F 66.0 °F 76% 30.05 in 10.0 mi East 10.4 mph - N/A   Overcast
6:51 PM 71.6 °F 68.0 °F 88% 30.06 in 1.8 mi East 6.9 mph - 0.11 in Rain Heavy Rain
6:53 PM 71.1 °F 68.0 °F 90% 30.04 in 1.8 mi East 8.1 mph - 0.11 in Rain Heavy Rain
6:58 PM 71.6 °F 68.0 °F 88% 30.06 in 3.0 mi East 6.9 mph - 0.01 in Rain Rain
7:53 PM 70.0 °F 68.0 °F 93% 30.03 in 10.0 mi East 10.4 mph - 0.03 in   Partly Cloudy
8:53 PM 71.1 °F 68.0 °F 90% 30.03 in 10.0 mi ESE 8.1 mph - 0.01 in Rain Light Rain
9:53 PM 71.1 °F 68.0 °F 90% 30.04 in 10.0 mi SE 9.2 mph - 0.00 in Rain Light Rain
10:53 PM 71.1 °F 68.0 °F 90% 30.02 in 10.0 mi SE 11.5 mph - 0.00 in   Partly Cloudy
11:53 PM 71.1 °F 68.0 °F 90% 30.02 in 10.0 mi SSE 10.4 mph - N/A   Partly Cloudy